| time (UTC) | temp F | wind direction | speed MPH | gust MPH | rain 1hr in | rain 24hr in | rain mn in | humidity % | barometer mb |
| 20260504040646 | 64 | 205 | 5.0 | 6.0 | 0.00 | 0.00 | 0.00 | 69 | 1019.0 |
| 20260504040146 | 65 | 216 | 4.0 | 6.0 | 0.00 | 0.00 | 0.00 | 68 | 1019.0 |
| 20260504035647 | 65 | 222 | 6.0 | 9.0 | 0.00 | 0.00 | 0.00 | 68 | 1019.3 |
| 20260504035147 | 65 | 252 | 3.0 | 6.0 | 0.00 | 0.00 | 0.00 | 67 | 1019.0 |
| 20260504034646 | 65 | 203 | 4.0 | 4.0 | 0.00 | 0.00 | 0.00 | 66 | 1019.0 |
| 20260504034149 | 65 | 176 | 3.0 | 5.0 | 0.00 | 0.00 | 0.00 | 66 | 1019.0 |
| 20260504033647 | 65 | 199 | 4.0 | 5.0 | 0.00 | 0.00 | 0.00 | 67 | 1019.0 |
| 20260504033146 | 65 | 177 | 2.0 | 5.0 | 0.00 | 0.00 | 0.00 | 67 | 1019.0 |
| 20260504032651 | 65 | 168 | 4.0 | 5.0 | 0.00 | 0.00 | 0.00 | 67 | 1019.0 |
| 20260504032147 | 66 | 163 | 1.0 | 3.0 | 0.00 | 0.00 | 0.00 | 66 | 1019.0 |
| 20260504031647 | 66 | 180 | 2.0 | 3.0 | 0.00 | 0.00 | 0.00 | 66 | 1019.0 |
| 20260504031146 | 65 | 169 | 2.0 | 3.0 | 0.00 | 0.00 | 0.00 | 66 | 1019.0 |
| 20260504030646 | 66 | 161 | 3.0 | 3.0 | 0.00 | 0.00 | 0.00 | 66 | 1019.0 |
| 20260504030147 | 66 | 151 | 2.0 | 3.0 | 0.00 | 0.00 | 0.00 | 65 | 1019.0 |
| 20260504025647 | 66 | 155 | 3.0 | 3.0 | 0.00 | 0.00 | 0.00 | 64 | 1019.0 |
| 20260504025147 | 66 | 141 | 3.0 | 3.0 | 0.00 | 0.00 | 0.00 | 63 | 1018.6 |
| 20260504024646 | 66 | 167 | 1.0 | 2.0 | 0.00 | 0.00 | 0.00 | 62 | 1019.0 |
| 20260504024151 | 67 | 44 | 0.0 | 3.0 | 0.00 | 0.00 | 0.00 | 60 | 1019.0 |
| 20260504023649 | 67 | 146 | 3.0 | 3.0 | 0.00 | 0.00 | 0.00 | 59 | 1018.6 |
| 20260504023146 | 67 | 117 | 0.0 | 2.0 | 0.00 | 0.00 | 0.00 | 59 | 1018.6 |
| 20260504022647 | 67 | 142 | 2.0 | 3.0 | 0.00 | 0.00 | 0.00 | 58 | 1019.0 |
| 20260504022147 | 67 | 139 | 3.0 | 4.0 | 0.00 | 0.00 | 0.00 | 58 | 1018.6 |
| 20260504021646 | 68 | 149 | 2.0 | 2.0 | 0.00 | 0.00 | 0.00 | 57 | 1018.6 |
| 20260504021146 | 68 | 127 | 0.0 | 2.0 | 0.00 | 0.00 | 0.00 | 55 | 1018.3 |
| 20260504020646 | 68 | 127 | 3.0 | 4.0 | 0.00 | 0.00 | 0.00 | 54 | 1018.6 |
| 20260504020146 | 69 | 108 | 2.0 | 3.0 | 0.00 | 0.00 | 0.00 | 53 | 1018.3 |
| 20260504015646 | 69 | 165 | 2.0 | 4.0 | 0.00 | 0.00 | 0.00 | 51 | 1018.3 |
| 20260504015147 | 69 | 171 | 2.0 | 3.0 | 0.00 | 0.00 | 0.00 | 49 | 1018.3 |
| 20260504014647 | 69 | 197 | 2.0 | 3.0 | 0.00 | 0.00 | 0.00 | 49 | 1018.3 |
| 20260504014146 | 69 | 205 | 2.0 | 4.0 | 0.00 | 0.00 | 0.00 | 49 | 1018.3 |
| 20260504013646 | 69 | 197 | 3.0 | 4.0 | 0.00 | 0.00 | 0.00 | 48 | 1017.9 |
| 20260504013146 | 70 | 199 | 2.0 | 3.0 | 0.00 | 0.00 | 0.00 | 47 | 1018.3 |
| 20260504012647 | 70 | 212 | 1.0 | 3.0 | 0.00 | 0.00 | 0.00 | 46 | 1017.9 |
| 20260504012146 | 70 | 220 | 1.0 | 1.0 | 0.00 | 0.00 | 0.00 | 46 | 1017.9 |
| 20260504011648 | 71 | 190 | 0.0 | 2.0 | 0.00 | 0.00 | 0.00 | 44 | 1018.3 |
| 20260504011148 | 71 | 212 | 1.0 | 1.0 | 0.00 | 0.00 | 0.00 | 44 | 1017.9 |
| 20260504010646 | 71 | 255 | 0.0 | 2.0 | 0.00 | 0.00 | 0.00 | 43 | 1017.9 |
| 20260504010146 | 72 | 223 | 1.0 | 1.0 | 0.00 | 0.00 | 0.00 | 42 | 1017.9 |
| 20260504005646 | 72 | 196 | 0.0 | 2.0 | 0.00 | 0.00 | 0.00 | 41 | 1017.9 |
| 20260504005146 | 73 | 265 | 0.0 | 2.0 | 0.00 | 0.00 | 0.00 | 40 | 1017.9 |
| 20260504004646 | 73 | 315 | 0.0 | 1.0 | 0.00 | 0.00 | 0.00 | 39 | 1017.6 |
| 20260504004146 | 73 | 354 | 2.0 | 2.0 | 0.00 | 0.00 | 0.00 | 39 | 1017.9 |
| 20260504003647 | 73 | 316 | 2.0 | 2.0 | 0.00 | 0.00 | 0.00 | 39 | 1017.6 |
| 20260504003147 | 73 | 295 | 2.0 | 3.0 | 0.00 | 0.00 | 0.00 | 38 | 1017.6 |
| 20260504002646 | 74 | 277 | 0.0 | 3.0 | 0.00 | 0.00 | 0.00 | 38 | 1017.6 |
| 20260504002147 | 74 | 337 | 0.0 | 4.0 | 0.00 | 0.00 | 0.00 | 38 | 1017.6 |
| 20260504001646 | 75 | 286 | 3.0 | 5.0 | 0.00 | 0.00 | 0.00 | 37 | 1017.6 |
| 20260504001146 | 75 | 279 | 2.0 | 4.0 | 0.00 | 0.00 | 0.00 | 36 | 1017.3 |
| 20260504000646 | 75 | 300 | 2.0 | 5.0 | 0.00 | 0.00 | 0.00 | 36 | 1017.6 |
| 20260504000148 | 75 | 294 | 3.0 | 5.0 | 0.00 | 0.00 | 0.00 | 36 | 1017.3 |
| 20260503235646 | 75 | 311 | 3.0 | 4.0 | 0.00 | 0.00 | 0.00 | 35 | 1017.6 |
| 20260503235146 | 75 | 12 | 2.0 | 5.0 | 0.00 | 0.00 | 0.00 | 36 | 1017.6 |
| 20260503234646 | 75 | 317 | 1.0 | 5.0 | 0.00 | 0.00 | 0.00 | 35 | 1017.6 |
| 20260503234146 | 75 | 309 | 3.0 | 6.0 | 0.00 | 0.00 | 0.00 | 36 | 1017.9 |
| 20260503233646 | 75 | 287 | 4.0 | 9.0 | 0.00 | 0.00 | 0.00 | 35 | 1017.9 |
| 20260503233146 | 76 | 298 | 4.0 | 6.0 | 0.00 | 0.00 | 0.00 | 36 | 1017.6 |
| 20260503232646 | 75 | 330 | 5.0 | 5.0 | 0.00 | 0.00 | 0.00 | 36 | 1017.9 |
| 20260503232147 | 75 | 312 | 7.0 | 11.0 | 0.00 | 0.00 | 0.00 | 35 | 1017.6 |
| 20260503231646 | 75 | 301 | 3.0 | 9.0 | 0.00 | 0.00 | 0.00 | 35 | 1017.9 |
| 20260503231147 | 76 | 293 | 9.0 | 11.0 | 0.00 | 0.00 | 0.00 | 35 | 1017.6 |
| 20260503230647 | 76 | 306 | 6.0 | 7.0 | 0.00 | 0.00 | 0.00 | 35 | 1017.9 |
| 20260503230146 | 76 | 280 | 5.0 | 7.0 | 0.00 | 0.00 | 0.00 | 35 | 1017.6 |
| 20260503225647 | 75 | 289 | 8.0 | 9.0 | 0.00 | 0.00 | 0.00 | 35 | 1017.9 |
| 20260503225146 | 76 | 301 | 5.0 | 7.0 | 0.00 | 0.00 | 0.00 | 34 | 1017.9 |
| 20260503224647 | 77 | 315 | 4.0 | 7.0 | 0.00 | 0.00 | 0.00 | 35 | 1017.9 |
| 20260503224146 | 77 | 309 | 3.0 | 4.0 | 0.00 | 0.00 | 0.00 | 34 | 1017.9 |
| 20260503223647 | 77 | 311 | 3.0 | 7.0 | 0.00 | 0.00 | 0.00 | 35 | 1017.9 |
| 20260503223146 | 76 | 282 | 1.0 | 5.0 | 0.00 | 0.00 | 0.00 | 35 | 1017.9 |
| 20260503222647 | 76 | 30 | 7.0 | 9.0 | 0.00 | 0.00 | 0.00 | 34 | 1017.9 |
| 20260503222147 | 76 | 338 | 2.0 | 7.0 | 0.00 | 0.00 | 0.00 | 35 | 1017.9 |
| 20260503221646 | 75 | 31 | 2.0 | 7.0 | 0.00 | 0.00 | 0.00 | 35 | 1017.9 |
| 20260503221146 | 76 | 283 | 6.0 | 9.0 | 0.00 | 0.00 | 0.00 | 34 | 1017.9 |
| 20260503220648 | 75 | 314 | 7.0 | 11.0 | 0.00 | 0.00 | 0.00 | 34 | 1017.9 |
| 20260503220146 | 75 | 293 | 0.0 | 7.0 | 0.00 | 0.00 | 0.00 | 35 | 1018.3 |
| 20260503215647 | 76 | 308 | 6.0 | 8.0 | 0.00 | 0.00 | 0.00 | 34 | 1017.9 |
| 20260503215146 | 77 | 330 | 4.0 | 4.0 | 0.00 | 0.00 | 0.00 | 33 | 1018.3 |
| 20260503214646 | 77 | 20 | 4.0 | 10.0 | 0.00 | 0.00 | 0.00 | 34 | 1018.6 |
| 20260503214151 | 75 | 294 | 2.0 | 8.0 | 0.00 | 0.00 | 0.00 | 33 | 1018.3 |
| 20260503213647 | 75 | 76 | 3.0 | 7.0 | 0.00 | 0.00 | 0.00 | 34 | 1018.6 |
| 20260503213146 | 75 | 292 | 5.0 | 9.0 | 0.00 | 0.00 | 0.00 | 34 | 1018.6 |
| 20260503212646 | 76 | 315 | 4.0 | 9.0 | 0.00 | 0.00 | 0.00 | 34 | 1018.6 |
| 20260503212148 | 75 | 140 | 2.0 | 7.0 | 0.00 | 0.00 | 0.00 | 34 | 1018.6 |
| 20260503211646 | 75 | 15 | 6.0 | 9.0 | 0.00 | 0.00 | 0.00 | 33 | 1019.0 |
| 20260503211147 | 75 | 285 | 7.0 | 7.0 | 0.00 | 0.00 | 0.00 | 32 | 1019.0 |
| 20260503210646 | 76 | 285 | 4.0 | 9.0 | 0.00 | 0.00 | 0.00 | 31 | 1019.0 |
| 20260503210147 | 76 | 357 | 4.0 | 9.0 | 0.00 | 0.00 | 0.00 | 32 | 1019.0 |
| 20260503205647 | 77 | 39 | 4.0 | 10.0 | 0.00 | 0.00 | 0.00 | 31 | 1019.0 |
| 20260503205147 | 76 | 35 | 2.0 | 5.0 | 0.00 | 0.00 | 0.00 | 32 | 1019.0 |
| 20260503204647 | 76 | 4 | 3.0 | 7.0 | 0.00 | 0.00 | 0.00 | 31 | 1019.3 |
| 20260503204146 | 76 | 278 | 2.0 | 6.0 | 0.00 | 0.00 | 0.00 | 32 | 1019.3 |
| 20260503203647 | 75 | 1 | 2.0 | 8.0 | 0.00 | 0.00 | 0.00 | 32 | 1019.6 |
| 20260503203147 | 75 | 56 | 2.0 | 11.0 | 0.00 | 0.00 | 0.00 | 32 | 1019.6 |
| 20260503202646 | 76 | 11 | 5.0 | 9.0 | 0.00 | 0.00 | 0.00 | 33 | 1019.6 |
| 20260503202147 | 75 | 36 | 5.0 | 8.0 | 0.00 | 0.00 | 0.00 | 31 | 1019.6 |
| 20260503201646 | 75 | 41 | 7.0 | 9.0 | 0.00 | 0.00 | 0.00 | 33 | 1019.6 |
| 20260503201146 | 74 | 19 | 3.0 | 7.0 | 0.00 | 0.00 | 0.00 | 33 | 1020.0 |
| 20260503200646 | 74 | 45 | 2.0 | 8.0 | 0.00 | 0.00 | 0.00 | 35 | 1020.0 |
| 20260503200147 | 75 | 20 | 5.0 | 6.0 | 0.00 | 0.00 | 0.00 | 33 | 1020.0 |
| 20260503195646 | 75 | 4 | 5.0 | 9.0 | 0.00 | 0.00 | 0.00 | 33 | 1020.0 |
| 20260503195146 | 74 | 346 | 8.0 | 11.0 | 0.00 | 0.00 | 0.00 | 34 | 1020.0 |
| 20260503194646 | 75 | 294 | 3.0 | 11.0 | 0.00 | 0.00 | 0.00 | 33 | 1020.0 |
| 20260503194147 | 74 | 322 | 5.0 | 11.0 | 0.00 | 0.00 | 0.00 | 34 | 1020.3 |
| 20260503193646 | 75 | 315 | 7.0 | 10.0 | 0.00 | 0.00 | 0.00 | 33 | 1020.3 |
| 20260503193146 | 75 | 45 | 4.0 | 9.0 | 0.00 | 0.00 | 0.00 | 32 | 1020.3 |
| 20260503192646 | 75 | 18 | 4.0 | 10.0 | 0.00 | 0.00 | 0.00 | 33 | 1020.3 |
| 20260503192146 | 74 | 315 | 6.0 | 10.0 | 0.00 | 0.00 | 0.00 | 33 | 1020.7 |
| 20260503191647 | 75 | 18 | 1.0 | 8.0 | 0.00 | 0.00 | 0.00 | 32 | 1020.7 |
| 20260503191146 | 75 | 10 | 6.0 | 10.0 | 0.00 | 0.00 | 0.00 | 33 | 1020.7 |
| 20260503190647 | 75 | 335 | 5.0 | 9.0 | 0.00 | 0.00 | 0.00 | 33 | 1020.7 |
| 20260503190147 | 75 | 32 | 6.0 | 11.0 | 0.00 | 0.00 | 0.00 | 34 | 1020.7 |
| 20260503185647 | 75 | 321 | 8.0 | 9.0 | 0.00 | 0.00 | 0.00 | 34 | 1020.7 |
| 20260503185146 | 74 | 313 | 6.0 | 10.0 | 0.00 | 0.00 | 0.00 | 34 | 1020.7 |
| 20260503184646 | 74 | 1 | 4.0 | 9.0 | 0.00 | 0.00 | 0.00 | 35 | 1021.0 |
| 20260503184147 | 75 | 321 | 5.0 | 12.0 | 0.00 | 0.00 | 0.00 | 36 | 1021.0 |
| 20260503183646 | 75 | 35 | 5.0 | 8.0 | 0.00 | 0.00 | 0.00 | 34 | 1021.0 |
| 20260503183147 | 74 | 15 | 5.0 | 6.0 | 0.00 | 0.00 | 0.00 | 33 | 1021.0 |
| 20260503182646 | 74 | 300 | 8.0 | 9.0 | 0.00 | 0.00 | 0.00 | 32 | 1021.3 |
| 20260503182146 | 74 | 41 | 1.0 | 6.0 | 0.00 | 0.00 | 0.00 | 33 | 1021.0 |
| 20260503181646 | 74 | 337 | 4.0 | 9.0 | 0.00 | 0.00 | 0.00 | 32 | 1021.3 |
| 20260503181148 | 74 | 349 | 5.0 | 8.0 | 0.00 | 0.00 | 0.00 | 32 | 1021.3 |
| 20260503180652 | 74 | 115 | 2.0 | 4.0 | 0.00 | 0.00 | 0.00 | 32 | 1021.3 |
| 20260503180146 | 74 | 59 | 6.0 | 13.0 | 0.00 | 0.00 | 0.00 | 32 | 1021.3 |
| 20260503175646 | 74 | 330 | 3.0 | 6.0 | 0.00 | 0.00 | 0.00 | 31 | 1021.3 |
| 20260503175146 | 74 | 12 | 4.0 | 5.0 | 0.00 | 0.00 | 0.00 | 32 | 1021.3 |
| 20260503174646 | 73 | 356 | 3.0 | 6.0 | 0.00 | 0.00 | 0.00 | 33 | 1021.7 |
| 20260503174147 | 74 | 49 | 7.0 | 14.0 | 0.00 | 0.00 | 0.00 | 32 | 1021.7 |
| 20260503173646 | 73 | 100 | 3.0 | 5.0 | 0.00 | 0.00 | 0.00 | 32 | 1021.7 |
| 20260503173148 | 73 | 66 | 4.0 | 10.0 | 0.00 | 0.00 | 0.00 | 32 | 1021.7 |
| 20260503172647 | 73 | 5 | 4.0 | 11.0 | 0.00 | 0.00 | 0.00 | 31 | 1022.0 |
| 20260503172147 | 73 | 48 | 7.0 | 13.0 | 0.00 | 0.00 | 0.00 | 32 | 1022.0 |
| 20260503171647 | 73 | 67 | 3.0 | 7.0 | 0.00 | 0.00 | 0.00 | 32 | 1022.4 |
| 20260503171146 | 73 | 67 | 6.0 | 11.0 | 0.00 | 0.00 | 0.00 | 31 | 1022.7 |
| 20260503170646 | 73 | 52 | 4.0 | 12.0 | 0.00 | 0.00 | 0.00 | 32 | 1022.4 |
| 20260503170146 | 73 | 354 | 5.0 | 6.0 | 0.00 | 0.00 | 0.00 | 30 | 1022.4 |
| 20260503150647 | 73 | 44 | 6.0 | 13.0 | 0.00 | 0.00 | 0.00 | 33 | 1022.4 |
| 20260503150146 | 73 | 57 | 2.0 | 8.0 | 0.00 | 0.00 | 0.00 | 34 | 1022.4 |
| 20260503140147 | 71 | 64 | 4.0 | 8.0 | 0.00 | 0.00 | 0.00 | 47 | 1021.7 |
| 20260503131146 | 68 | 15 | 2.0 | 4.0 | 0.00 | 0.00 | 0.00 | 60 | 1021.3 |
| 20260503130647 | 67 | 38 | 0.0 | 3.0 | 0.00 | 0.00 | 0.00 | 61 | 1021.3 |
| 20260503130148 | 65 | 34 | 3.0 | 3.0 | 0.00 | 0.00 | 0.00 | 64 | 1021.3 |
| 20260503120147 | 57 | 15 | 0.0 | 1.0 | 0.00 | 0.00 | 0.00 | 77 | 1020.7 |
| 20260503110646 | 56 | 44 | 0.0 | 0.0 | 0.00 | 0.00 | 0.00 | 77 | 1020.3 |
| 20260503110146 | 56 | 44 | 0.0 | 0.0 | 0.00 | 0.00 | 0.00 | 77 | 1020.3 |
| 20260503100147 | 57 | 315 | 0.0 | 0.0 | 0.00 | 0.00 | 0.00 | 73 | 1020.3 |
| 20260503090153 | 66 | 13 | 5.0 | 6.0 | 0.00 | 0.00 | 0.00 | 51 | 1020.0 |
| 20260503081147 | 66 | 13 | 5.0 | 6.0 | 0.00 | 0.00 | 0.00 | 51 | 1019.6 |
| 20260503080646 | 66 | 13 | 5.0 | 6.0 | 0.00 | 0.00 | 0.00 | 51 | 1019.6 |
| 20260503080146 | 66 | 13 | 5.0 | 6.0 | 0.00 | 0.00 | 0.00 | 51 | 1019.6 |
| 20260503072646 | 66 | 13 | 5.0 | 6.0 | 0.00 | 0.00 | 0.00 | 51 | 1019.3 |
| 20260503072146 | 66 | 13 | 5.0 | 6.0 | 0.00 | 0.00 | 0.00 | 51 | 1019.3 |
| 20260503071648 | 66 | 9 | 4.0 | 5.0 | 0.00 | 0.00 | 0.00 | 49 | 1019.3 |
| 20260503071146 | 66 | 9 | 4.0 | 5.0 | 0.00 | 0.00 | 0.00 | 49 | 1019.0 |
| 20260503070646 | 66 | 9 | 4.0 | 5.0 | 0.00 | 0.00 | 0.00 | 49 | 1019.3 |
| 20260503070146 | 66 | 9 | 4.0 | 5.0 | 0.00 | 0.00 | 0.00 | 49 | 1019.3 |
| 20260503060146 | 67 | 353 | 5.0 | 9.0 | 0.00 | 0.00 | 0.00 | 47 | 1019.0 |
| 20260503054648 | 67 | 10 | 10.0 | 11.0 | 0.00 | 0.00 | 0.00 | 47 | 1019.0 |
| 20260503054146 | 67 | 31 | 7.0 | 8.0 | 0.00 | 0.00 | 0.00 | 48 | 1019.0 |
| 20260503053646 | 67 | 42 | 5.0 | 7.0 | 0.00 | 0.00 | 0.00 | 47 | 1019.0 |
| 20260503053147 | 67 | 34 | 4.0 | 6.0 | 0.00 | 0.00 | 0.00 | 47 | 1019.0 |
| 20260503052647 | 67 | 13 | 6.0 | 11.0 | 0.00 | 0.00 | 0.00 | 46 | 1019.0 |
| 20260503052147 | 67 | 6 | 4.0 | 8.0 | 0.00 | 0.00 | 0.00 | 47 | 1018.6 |
| 20260503051647 | 67 | 10 | 3.0 | 10.0 | 0.00 | 0.00 | 0.00 | 47 | 1019.0 |
| 20260503051146 | 68 | 12 | 4.0 | 8.0 | 0.00 | 0.00 | 0.00 | 46 | 1018.6 |
| 20260503050647 | 68 | 32 | 10.0 | 10.0 | 0.00 | 0.00 | 0.00 | 46 | 1019.0 |
| 20260503050154 | 68 | 0 | 3.0 | 12.0 | 0.00 | 0.00 | 0.00 | 47 | 1019.0 |
| 20260503045647 | 68 | 56 | 5.0 | 9.0 | 0.00 | 0.00 | 0.68 | 47 | 1019.0 |
| 20260503045146 | 68 | 338 | 6.0 | 9.0 | 0.00 | 0.00 | 0.68 | 47 | 1019.0 |
| 20260503044647 | 68 | 37 | 7.0 | 9.0 | 0.00 | 0.00 | 0.68 | 47 | 1019.0 |
| 20260503044146 | 68 | 26 | 5.0 | 8.0 | 0.00 | 0.00 | 0.68 | 47 | 1019.0 |
| 20260503043646 | 68 | 349 | 3.0 | 10.0 | 0.00 | 0.00 | 0.68 | 47 | 1019.0 |
| 20260503043147 | 68 | 331 | 3.0 | 9.0 | 0.00 | 0.00 | 0.68 | 45 | 1019.0 |
| 20260503042646 | 68 | 25 | 5.0 | 10.0 | 0.00 | 0.00 | 0.68 | 45 | 1019.0 |
| 20260503042147 | 68 | 41 | 5.0 | 11.0 | 0.00 | 0.00 | 0.68 | 45 | 1018.6 |
| 20260503041646 | 68 | 3 | 3.0 | 11.0 | 0.00 | 0.00 | 0.68 | 45 | 1018.6 |
| 20260503041146 | 68 | 30 | 5.0 | 6.0 | 0.00 | 0.00 | 0.68 | 45 | 1018.6 |